Starlink 1446

operational
NORAD ID: 45663 Int'l Des: 2020-035 Owner: SPXS Country: US Constellation: starlink
LEOCIRCULAR

Starlink 1446について

説明を読み込み中...

リアルタイム位置

3D地球を読み込み中...

次回通過

高度履歴

Altitude vs Time

uPlot chart will show altitude changes over time

軌道要素

1 45663U 20035G 25352.47883186 .00059449 00000-0 15499-2 0 9997
2 45663 53.0265 23.9996 0003329 22.7203 337.3946 15.38296556307159
Epoch: Dec 18, 2025 • Age: 19 hours

現在のステータス

高度 455.0 km
速度 7.64 km/s
衛星直下点 40.97°N, 29.62°W
打ち上げ日 Jun 4, 2020
運用期間 5.5 years
タイプ internet

技術仕様

分類 Payload
質量 260.00 kg
乾燥質量 248.00 kg
総質量 260.00 kg
長さ 0.20 m
直径 2.80 m
スパン 9.00 m
形状 Box + pan
製造者 SPXS
バスタイプ Starlink
フェーズステータス In Orbit
所有者/国 SPXS/US

大規模コンステレーション

Loading constellations...